Location: Unspecified
(51.5147°N, 7.4673°E)
Time: 17:34:32
(UTC+01:00)

Vanguard 1 - Pass Details

Date: 18 February 2026
Orbit: 653 x 3818 km, 34.2° (Epoch: 5 March)

Event Time Altitude Azimuth Distance (km) Brightness Sun altitude
Rises 20:58:23 0° 270° (W) 6,395 15.3 -29.5°
Reaches altitude 10° 21:02:48 10° 262° (W) 5,775 14.7 -30.1°
Maximum altitude 21:18:17 32° 208° (SSW) 5,057 13.6 -32.3°
Enters shadow 21:31:33 19° 166° (SSE) 6,160 13.7 -34.2°
